Showing default

COSMOS 2444 (GLONASS), 33380

Orbit data source: Space-Track

COSMOS 2444 (GLONASS), 33380 is a Commonwealth of Independent States-origin payload satellite in MEO that was launched on Thu, 25 Sep 2008 UTC via a PROTON-M/DM-2 launch vehicle from the Tyuratam Missile And Space Complex (TTMTR). Payload-class satellites include a variety of spacecraft equipped with specific instruments for various scientific and technological missions. These include communications satellites like Starlink; space stations such as the ISS; scientific satellites like the Hubble; Earth observation satellites from companies like Planet Labs, Umbra, and HawkEye 360; GPS; miniature CubeSats for education and research; and military/defense satellites.

Loading next visibility...
Identifier
33380, 2008-046C
Orbit
MEO
Country
Flag of CISCIS
Related business
Manufacturer
Resehetnev ISS
Mission
Non-operational Defense Navigation
Bus & Motor
URAGAN, Unknown motor
Mass
1,450 kg wet, ~1,200 kg dry
Launch date (UTC)
2008-09-25 (18 years ago)
Launch vehicle
PROTON-M/DM-2
Launch site
Tyuratam Missile And Space Complex (TTMTR)
Object type
Payload
Rocket body
Debris
Shape & HBR
Cyl + 1 Ant + 2 Pan, 3.9 m
Radar Cross Section
8.467 m², Large (>1 m²)

Expand to show TLE details & history
Last TLE update: 2 days ago

TLE from 2 days ago
0 COSMOS 2444 (GLONASS)
1 33380U 08046C   26171.17583031 -.00000061  00000-0  00000-0 0  9998
2 33380  65.4819 314.9293 0018109 290.4843  68.1167  2.13112184138006
Epoch: 2026-06-20T04:13Z
TLE epoch observation values (Epoch: 2026-06-20T04:13:11.738Z)
Latitude
-1.09178°
Longitude
-17.27514°
Altitude
19,112.643 km
Speed
3.956 km/s
True Right ascension
20h 57m 40s
True Declination
-1° 05' 24"
Sunlit
Object was in daylight at epoch
Visualization orbit readout
Latitude
Unknown
Longitude
Unknown
Altitude
Unknown
Speed
Unknown
Apparent Right ascension
Unknown
Apparent Declination
Unknown
Sunlit
N/A
Visualization observer readout
Local Sidereal Time
23:27:20
Azimuth
Unknown
Elevation
Unknown
Doppler factor
Unknown
Orbital elements
Apogee altitude
19,174.863 km
Perigee altitude
19,082.483 km
Semi-major axis
25,506.81 km
Eccentricity
0.00181
Inclination
65.4819°
RAAN
314.9293°
Arg. of periapsis
290.4843°
True anomaly
68.30942°
Mean anomaly
68.1167°
Eccentric anomaly
68.21305°
Mean motion
0.53279 °/min
Orbital period
675.68 mins
BSTAR
0
Loading maneuver chart data...
Computing Atmospheric mass density...
Loading historical data...
Loading historical data...
Loading historical data...
Loading historical data...
Loading historical data...
Loading historical data...
Loading historical data...

Documentation

Showing up to 5 results
|